Theta_e
338 338 336 333 333 333 331 332 332 332 330 328 324 321 317 315 310 307 306 309 306 309 311 309 312 315 316 317 315 312 311 312 314 316 314 314 313 309 307 307 308 307 307 306 306 305 305 306 307 310 310 309 309 308 308 307 308 309 310 310 310 309 310 310 310 312 311 312 312 310 310 311 311 311
335 335 334 333 333 331 331 334 334 330 331 325 324 322 320 318 313 311 308 308 310 309 312 312 310 313 315 317 316 314 312 313 313 316 315 315 315 306 306 305 304 304 306 305 305 304 304 306 308 309 308 308 306 307 306 306 307 309 308 308 310 309 308 309 311 312 312 311 311 309 308 309 310 311
335 333 332 333 332 333 332 333 332 332 330 326 324 322 321 319 324 314 313 308 311 313 311 312 312 312 315 316 316 314 313 312 313 318 318 316 310 306 307 305 304 305 304 304 303 304 304 305 306 308 309 309 307 307 307 305 305 308 306 306 308 307 308 308 307 310 311 311 310 310 308 308 308 309
333 331 331 332 332 332 331 332 331 329 328 328 323 323 322 318 321 317 314 311 310 315 314 313 312 313 315 315 314 316 313 313 313 318 318 317 307 307 309 304 304 305 304 303 305 309 307 305 306 307 309 309 309 309 307 305 307 308 306 304 305 306 308 307 307 306 306 308 308 308 308 307 307 307
332 330 330 331 330 333 331 329 328 326 325 324 323 323 319 317 319 317 316 313 312 317 320 317 312 314 315 314 315 314 315 314 314 314 318 314 313 311 312 308 304 303 303 303 304 306 306 304 307 307 307 307 307 306 304 305 305 303 305 304 305 305 305 307 307 305 305 306 306 306 305 305 306 306
331 331 331 331 330 331 329 329 324 324 325 321 320 319 318 315 316 320 315 313 313 313 318 316 315 313 315 312 315 315 316 314 314 312 316 315 315 313 314 312 308 302 303 302 302 305 304 303 306 304 303 303 304 304 303 303 303 303 301 300 304 305 305 304 304 304 304 306 305 305 305 305 306 306
332 331 330 329 331 330 329 327 325 324 322 320 318 318 316 316 317 317 316 315 314 314 315 319 315 315 314 315 313 315 316 316 314 312 313 315 315 315 315 314 313 302 302 301 301 303 302 303 304 303 302 303 303 303 302 302 302 301 301 300 302 303 303 303 304 304 304 304 304 304 304 304 305 306
325 327 329 329 331 331 328 327 325 323 322 320 318 317 319 318 314 319 319 318 317 315 314 316 315 315 315 314 316 315 316 316 315 314 313 315 316 316 315 315 316 305 302 301 302 302 303 303 303 302 302 302 302 302 301 301 301 301 300 301 301 302 303 302 302 302 303 302 302 302 301 303 304 304
323 324 324 327 331 331 330 327 324 323 323 320 319 317 317 318 317 320 318 319 318 316 315 315 316 317 316 317 317 317 314 314 316 316 315 315 315 316 317 317 313 304 302 301 301 301 302 303 302 302 302 302 302 301 301 301 301 300 301 301 301 301 302 302 302 301 301 301 301 300 300 300 302 303
324 324 323 324 325 331 327 327 325 326 323 320 320 318 318 317 319 321 319 320 319 317 316 317 313 317 315 315 316 317 317 315 314 315 316 317 317 316 317 316 308 308 304 305 304 303 303 302 302 302 302 301 301 301 301 300 300 300 300 300 300 300 300 301 301 300 299 300 300 300 299 300 300 301
324 325 324 325 325 325 329 329 328 326 324 323 322 321 322 318 319 318 319 317 317 318 317 316 318 316 317 319 316 316 318 317 316 315 315 315 315 317 316 316 312 309 307 304 302 303 304 305 304 302 301 301 301 301 300 300 300 299 298 297 297 297 298 299 299 300 300 299 298 298 297 298 299 300
324 325 324 324 324 324 325 327 327 331 326 325 323 324 322 322 321 320 319 319 317 317 317 316 317 317 317 316 317 317 316 315 314 314 314 313 314 315 318 317 316 315 313 312 308 305 304 304 303 300 301 301 301 300 300 301 300 298 297 297 298 298 298 298 298 299 299 299 299 298 297 297 298 298
324 324 324 323 324 322 315 307 310 312 316 332 325 325 324 323 322 321 320 319 317 317 317 316 317 316 315 316 317 315 314 314 313 317 317 314 314 315 318 316 316 316 316 314 313 310 310 307 307 304 304 304 302 302 301 302 300 298 297 298 299 300 299 298 300 299 299 298 298 298 297 297 297 297
323 323 324 323 315 313 311 307 303 300 302 306 318 324 325 323 321 321 319 319 318 318 315 315 316 315 314 315 317 317 317 318 319 317 317 314 314 316 314 317 320 317 318 316 314 313 312 310 308 307 306 306 304 304 304 304 301 299 297 299 299 299 298 299 299 299 298 298 297 298 297 297 297 297
321 321 322 323 322 320 316 321 299 302 302 300 298 299 303 308 320 322 320 318 319 317 316 317 316 315 315 316 317 317 316 319 317 317 317 316 315 314 311 310 317 320 320 319 316 316 316 313 310 309 309 309 305 306 305 303 300 298 298 299 299 299 298 299 298 298 297 297 296 296 296 296 297 297
321 320 322 323 322 323 327 323 320 313 300 304 303 301 299 297 295 299 316 319 319 320 317 316 317 316 315 316 317 316 317 317 318 318 317 317 315 314 313 313 312 318 324 318 316 315 319 314 312 313 312 311 307 308 306 300 299 298 298 299 299 299 299 299 299 298 298 297 297 296 296 296 296 296
322 321 322 323 323 320 318 320 321 322 324 301 294 298 300 300 298 299 298 299 316 320 319 320 319 318 318 317 317 321 322 322 318 320 317 317 317 316 314 314 314 319 323 319 315 313 316 317 312 313 315 316 314 307 300 299 298 298 298 298 298 298 298 298 298 298 297 297 298 297 297 297 297 297
323 323 323 323 322 324 324 324 325 321 323 325 325 325 323 321 318 300 297 296 294 305 319 319 319 323 324 320 323 327 326 321 318 318 318 321 318 317 315 319 319 321 322 318 316 314 315 317 315 312 315 316 313 308 301 297 298 298 298 298 298 297 298 297 297 297 297 296 296 296 296 296 296 296
324 325 325 324 323 326 322 309 307 323 325 326 325 324 325 325 324 324 325 324 322 322 322 321 320 322 324 324 328 328 329 327 323 323 323 324 322 322 323 325 324 323 321 321 318 312 315 318 314 313 315 316 314 311 297 297 297 297 297 297 297 298 297 297 297 296 297 296 296 295 295 295 295 295
327 327 328 327 327 327 318 299 293 298 313 323 323 322 322 322 323 324 319 317 317 324 325 325 324 325 325 306 324 327 331 329 331 325 325 323 321 318 316 317 320 318 322 321 317 314 314 318 315 314 315 315 313 311 302 297 298 297 297 297 297 296 297 296 296 296 296 296 295 296 295 294 294 293
326 327 322 322 324 323 311 294 292 293 299 323 323 323 323 324 323 323 325 311 303 300 298 296 296 295 295 297 297 296 295 315 321 326 321 320 320 318 316 316 317 318 320 319 318 315 312 315 315 314 314 314 312 312 306 303 297 297 297 296 296 296 296 296 295 295 296 295 295 295 294 294 294 294
323 315 311 319 322 316 306 291 291 291 304 317 320 322 322 322 322 325 327 328 327 306 304 301 298 296 296 295 294 293 294 295 302 322 316 318 321 315 314 313 315 315 317 320 318 313 311 315 316 313 314 313 312 312 310 304 301 296 296 296 296 296 295 295 294 295 295 295 295 294 294 294 294 298
319 317 306 300 304 304 296 289 290 290 299 309 313 315 317 318 320 322 323 325 325 325 325 325 324 316 308 311 314 315 301 297 303 318 319 319 318 316 316 314 313 313 315 319 318 311 312 312 313 312 310 308 311 313 309 303 303 300 300 299 298 295 295 294 294 294 295 295 295 295 295 295 294 298
312 314 309 298 290 291 290 289 289 290 290 302 306 308 308 310 313 313 311 314 318 322 323 323 323 322 323 323 321 319 319 317 313 316 318 318 318 317 316 316 316 311 312 316 316 312 312 313 310 313 311 306 300 308 307 303 304 303 303 302 300 297 295 294 294 293 294 294 295 295 295 295 295 298
308 309 311 305 292 290 290 290 290 290 290 290 301 305 306 308 305 300 307 309 303 311 315 320 320 320 321 322 322 321 321 320 319 316 316 317 318 317 315 315 315 315 317 316 308 314 310 311 309 311 310 308 308 306 304 305 306 305 306 306 304 301 299 298 298 299 295 294 294 294 294 295 295 297
308 309 309 308 295 290 291 291 291 290 291 290 297 301 295 293 293 300 303 306 307 307 308 309 312 316 318 318 319 321 320 319 320 319 316 315 316 317 317 316 315 314 315 313 302 313 311 309 310 309 309 306 305 305 305 303 305 305 306 305 304 303 301 302 302 303 303 300 298 295 296 294 294 295
302 305 307 306 293 291 291 291 291 291 290 292 299 293 292 292 290 293 303 305 306 306 305 306 306 308 312 313 314 316 316 318 318 319 318 317 317 315 316 317 318 318 318 312 311 314 313 310 312 309 306 305 303 302 302 300 301 304 303 303 304 304 304 303 301 301 302 302 300 295 294 294 294 294
303 303 304 299 291 291 291 291 291 291 290 294 291 290 291 291 291 299 302 302 304 303 303 303 304 304 306 307 309 311 314 315 317 319 319 319 318 318 317 317 311 312 313 311 311 311 312 311 308 310 310 308 304 301 300 303 302 302 301 304 304 304 304 303 302 302 300 302 301 298 298 298 298 296
303 295 291 292 292 292 291 291 290 292 292 290 289 289 289 291 297 301 302 303 303 302 302 304 305 305 305 306 307 311 312 315 316 316 316 318 319 319 318 313 310 309 310 310 310 309 309 309 307 306 304 306 303 302 302 299 300 301 301 301 300 301 302 303 302 300 300 300 301 300 299 299 299 299
289 289 290 290 291 291 294 298 301 302 304 295 292 291 291 301 303 303 303 304 304 304 304 305 305 307 308 309 311 313 313 312 311 312 311 313 313 313 309 307 306 307 306 306 305 305 307 308 305 304 302 302 301 299 300 299 298 300 299 300 300 300 300 301 300 300 300 298 298 299 300 300 299 298
300 301 300 299 295 295 293 294 293 295 296 300 303 302 302 303 305 307 307 307 307 305 306 306 307 308 309 310 310 309 309 310 310 312 311 312 310 309 308 305 304 303 303 304 303 304 304 304 307 305 302 300 301 301 300 301 299 299 300 301 300 295 299 301 301 300 299 299 299 298 299 299 299 298
299 300 296 297 302 303 303 303 304 305 306 305 303 305 305 305 305 304 301 301 307 306 306 305 305 305 306 306 308 308 308 309 309 311 309 308 309 307 303 303 300 301 300 301 303 302 298 302 302 305 302 301 300 300 301 300 299 299 299 300 300 300 299 298 298 298 299 298 297 296 297 298 298 299
298 300 300 300 300 303 297 299 303 303 303 301 303 305 305 304 303 304 305 304 304 305 304 304 304 304 305 305 306 306 307 307 307 309 308 308 307 305 304 302 301 300 298 298 298 297 299 303 302 303 302 302 304 303 302 298 299 299 298 299 299 298 298 298 297 298 298 297 295 296 296 298 298 298
294 296 296 298 299 298 298 299 298 299 299 297 299 299 297 300 302 302 301 303 303 303 301 302 301 300 301 301 303 304 305 306 306 303 301 305 305 301 301 300 299 300 297 297 297 296 298 299 298 301 301 302 302 302 301 299 298 299 300 299 297 296 297 298 298 297 297 296 295 294 295 296 297 297
295 297 297 298 299 298 300 297 298 297 298 298 298 299 299 301 300 298 301 301 300 299 299 298 300 300 300 300 300 300 301 302 303 302 301 301 302 300 300 298 297 296 297 296 296 296 297 298 296 294 299 297 296 298 298 300 298 299 299 298 297 296 296 298 297 297 296 296 296 293 294 294 295 296
297 298 298 298 297 298 297 297 298 298 298 298 297 298 297 298 299 299 299 299 301 300 300 299 298 298 298 298 297 299 298 297 297 297 294 296 294 295 296 296 295 295 296 296 296 298 297 296 296 295 291 293 292 291 293 295 296 298 297 293 296 296 296 296 297 296 296 295 295 294 291 290 294 296
297 296 297 297 299 298 297 298 298 298 298 298 297 298 298 297 298 300 300 297 300 297 298 298 298 297 297 297 296 295 296 295 294 292 292 294 294 294 293 292 293 295 295 296 297 297 297 295 297 296 295 292 291 291 292 292 292 294 300 296 293 296 295 295 294 293 295 296 295 295 292 290 290 295
297 298 298 298 298 299 298 298 296 296 297 297 298 298 298 299 299 300 301 299 297 296 297 296 295 295 296 295 295 295 294 295 294 293 292 292 292 292 292 291 291 294 296 297 297 296 298 298 296 295 294 291 291 291 289 291 292 293 294 297 292 292 292 293 292 292 292 296 295 296 295 292 291 293
300 298 298 298 298 299 297 297 296 296 298 298 297 297 296 298 298 298 296 295 295 294 295 295 294 293 292 293 293 293 294 293 292 292 292 291 290 291 290 291 292 293 293 293 294 296 296 295 295 295 294 292 290 289 291 291 290 293 291 291 296 293 293 291 292 293 293 291 294 296 293 293 293 289
298 298 298 298 298 298 298 298 297 298 297 297 297 298 296 295 296 293 293 293 293 292 292 293 292 291 291 292 292 292 292 292 291 291 290 291 290 290 290 290 291 291 291 290 290 292 293 294 294 295 295 291 290 293 292 293 293 293 292 291 290 294 293 292 293 293 292 294 295 292 292 292 290 292
297 297 298 297 297 297 296 297 297 297 297 297 297 295 297 297 294 292 293 292 291 292 292 291 290 290 290 290 290 290 289 289 290 290 290 289 289 289 289 289 290 291 290 289 289 291 292 293 292 287 293 292 292 292 293 291 290 291 291 291 290 289 290 291 295 294 292 294 294 292 291 291 291 290
297 296 296 297 296 296 296 296 296 296 296 295 294 293 295 293 293 291 292 290 290 290 290 289 289 288 288 289 289 288 288 288 288 288 288 289 289 289 289 290 290 290 290 289 290 291 294 295 294 295 293 292 292 290 289 290 290 290 291 291 292 290 289 289 289 289 296 293 292 290 291 291 291 290
296 295 295 295 295 295 295 294 295 295 294 295 293 293 293 292 293 292 292 291 291 291 290 289 289 288 287 288 288 288 287 287 287 287 288 288 288 288 288 289 289 290 290 290 291 290 291 292 295 292 292 292 291 291 289 290 291 291 291 291 291 293 293 290 289 288 287 288 289 290 291 290 288 287
295 294 294 294 294 294 294 294 294 295 294 292 293 293 292 292 292 291 291 291 290 290 290 289 288 288 287 287 288 288 287 287 287 287 287 288 288 289 288 289 289 289 290 290 290 289 290 290 291 291 291 290 291 291 290 290 290 291 291 292 292 292 292 293 293 290 289 289 289 288 287 287 287 287
293 294 293 293 293 292 292 293 293 294 293 293 293 292 292 292 292 291 290 290 290 290 290 290 289 289 288 288 287 287 287 287 287 287 288 288 288 288 288 288 289 289 289 290 290 289 290 291 291 291 291 291 291 290 290 291 290 291 291 291 290 291 292 292 292 291 292 292 291 289 288 287 286 285
Wind_Speed
5 4 5 3 4 5 5 4 5 5 5 6 7 7 6 5 6 6 7 6 7 8 8 7 8 9 8 8 9 9 9 11 10 8 8 7 7 6 7 7 7 7 6 6 5 4 4 4 4 3 4 4 4 4 4 3 4 4 4 6 6 6 6 7 6 5 7 8 8 8 8 8 8 8
4 5 4 4 4 6 4 4 4 6 9 8 7 8 6 6 6 5 6 7 6 7 7 6 8 9 9 8 8 8 9 14 13 9 9 8 7 10 7 7 6 6 6 5 5 4 4 3 2 2 1 2 1 1 1 1 2 1 3 3 4 4 5 5 6 5 5 6 6 7 8 8 8 8
4 5 6 5 4 4 5 4 4 6 5 6 6 6 6 5 4 6 5 6 5 6 6 7 8 9 10 8 8 8 10 13 13 7 9 9 13 12 7 8 7 6 6 5 5 5 4 3 2 2 1 2 2 1 2 1 1 0 2 2 2 2 3 4 4 5 5 6 6 6 7 8 8 9
4 3 4 6 5 4 4 3 6 6 6 5 5 6 3 2 2 4 5 5 7 5 5 6 8 10 9 9 9 8 9 10 15 6 7 10 15 10 7 9 9 9 8 7 6 6 6 4 4 3 3 3 3 2 2 2 2 1 2 1 1 1 1 2 3 4 5 5 5 6 7 7 8 8
5 6 7 8 7 8 7 7 7 7 7 6 7 4 4 5 5 6 6 7 7 5 4 4 7 8 9 9 9 9 8 10 8 9 7 12 9 9 8 9 13 13 12 10 9 8 6 6 5 5 5 4 4 3 3 2 2 2 3 3 2 1 1 2 3 5 5 5 6 6 7 7 8 8
8 10 11 9 8 7 5 8 8 8 7 8 8 6 6 7 7 6 8 10 7 7 5 5 5 9 8 7 9 9 8 10 9 10 8 10 10 9 9 9 10 18 15 14 13 10 9 7 6 6 6 6 6 5 4 4 4 4 4 3 2 2 2 3 2 3 4 5 6 6 6 7 8 8
3 5 4 6 9 7 7 7 7 8 8 8 8 7 6 7 6 7 6 11 9 9 7 5 7 8 7 6 9 10 9 9 10 10 9 10 9 8 9 9 9 18 17 18 14 13 11 10 9 9 8 8 8 7 6 6 7 6 6 6 5 4 4 3 3 3 4 4 4 5 5 6 7 7
4 2 1 6 7 7 7 7 7 8 9 10 7 8 6 7 7 5 8 6 9 8 8 7 7 8 7 7 7 8 9 9 9 9 9 9 9 9 9 9 8 15 19 17 15 14 12 12 11 11 10 10 9 9 8 8 8 8 7 7 6 6 5 5 4 3 3 3 3 4 5 7 8 8
6 7 8 6 6 8 9 10 8 8 8 9 6 7 7 6 7 3 3 2 3 7 9 9 8 7 9 7 7 8 9 10 9 9 9 9 10 10 9 8 4 17 18 15 13 13 12 13 12 12 12 11 11 11 10 9 9 8 8 8 8 7 6 6 5 4 3 2 3 4 5 6 7 8
3 4 4 6 7 7 4 8 7 7 9 8 6 8 7 8 7 5 5 4 4 5 4 7 8 6 5 8 7 7 8 8 8 8 8 8 7 8 7 5 7 6 7 7 6 6 8 11 12 13 12 12 12 12 11 11 10 9 9 8 8 7 6 6 4 3 2 1 1 3 4 5 7 8
4 4 4 3 4 5 7 5 7 6 6 5 3 5 6 6 8 7 5 6 6 5 4 6 4 6 7 5 6 7 8 8 7 7 7 7 8 7 7 7 7 8 8 9 10 9 10 11 10 12 12 13 12 12 12 11 11 10 10 9 8 7 6 5 4 3 2 1 1 2 3 4 6 7
3 4 4 4 5 2 1 2 7 7 6 5 5 4 4 4 3 5 6 6 6 7 7 7 6 6 6 6 7 7 7 8 8 9 8 7 6 7 8 8 8 9 9 8 7 7 6 9 8 10 10 11 13 13 12 11 11 11 11 9 8 8 7 6 5 4 3 1 0 1 3 4 5 6
4 4 4 2 6 9 6 10 10 8 7 1 5 5 4 4 4 5 6 6 6 6 6 6 6 6 7 7 7 7 7 7 7 5 5 7 8 7 4 7 10 9 8 8 7 8 9 9 8 8 8 8 10 11 12 10 11 13 11 10 9 8 7 6 5 3 3 1 1 2 3 4 4 5
4 5 5 7 8 9 8 8 9 9 8 9 6 4 3 3 5 6 6 6 6 6 6 7 6 7 7 7 6 6 6 6 6 6 6 8 7 7 8 6 4 9 8 6 9 9 10 10 9 10 10 10 11 8 9 9 10 11 12 11 10 9 7 6 4 4 2 2 3 3 3 4 4 5
5 3 4 7 6 5 4 4 5 5 7 8 7 6 5 4 4 5 5 7 6 6 6 6 7 7 7 7 6 6 8 8 7 7 6 8 7 8 8 8 6 7 6 6 9 9 8 11 10 10 11 10 12 11 11 14 16 15 13 12 10 9 7 6 5 4 4 3 3 4 4 4 5 5
5 5 4 4 5 4 3 3 7 6 5 2 4 4 6 7 5 2 1 5 6 5 7 7 7 7 7 8 7 8 7 7 6 8 8 8 9 8 8 8 10 6 4 7 8 9 6 11 9 9 9 9 12 12 12 18 18 16 14 12 10 8 7 6 5 4 4 3 3 4 5 5 5 5
1 3 4 3 2 5 5 2 3 1 5 4 3 2 3 4 6 8 4 3 4 6 7 6 7 8 7 8 8 6 7 7 8 7 7 7 8 8 9 10 9 6 7 7 8 10 9 9 9 9 8 7 8 6 14 19 18 16 14 12 10 9 8 6 5 4 4 3 3 4 5 6 5 6
0 1 1 2 4 4 1 4 5 3 4 4 4 3 4 5 6 7 9 10 8 5 5 7 7 7 7 7 6 7 6 6 7 9 7 6 9 10 11 9 9 7 9 8 8 9 9 8 8 10 8 8 8 7 12 17 16 16 14 12 10 9 7 7 5 5 4 4 4 4 6 7 7 7
1 2 2 3 4 5 9 7 9 8 7 6 5 5 6 7 7 7 8 8 7 6 6 7 8 7 8 8 6 5 3 6 8 8 8 8 7 8 8 7 7 4 8 9 7 10 9 7 9 9 8 7 9 9 14 17 16 16 15 13 11 10 9 7 7 6 5 4 4 5 6 7 7 7
1 0 1 2 2 7 8 9 12 10 7 5 6 7 8 8 7 7 6 4 6 8 7 6 6 6 3 4 3 3 4 6 4 4 6 7 9 10 12 12 9 10 8 8 9 9 9 7 10 7 7 7 9 6 9 15 17 16 15 13 12 11 8 8 6 6 6 5 5 6 6 7 8 9
1 3 5 5 3 7 7 9 12 12 9 5 6 7 8 8 8 8 6 9 9 10 11 12 11 9 9 9 7 6 8 5 5 5 7 8 8 8 9 10 10 10 6 8 10 8 9 8 8 8 7 8 9 6 10 9 12 15 14 13 12 10 10 9 8 8 8 7 7 7 8 8 8 9
2 8 10 7 6 8 7 9 11 13 9 5 7 8 9 9 10 8 6 5 3 5 6 10 11 11 11 11 11 10 10 10 6 7 12 11 7 5 9 8 7 8 10 7 6 8 8 6 7 9 9 8 9 10 6 9 8 10 10 13 13 12 11 10 10 10 9 9 10 9 9 8 7 7
1 8 10 14 12 9 7 10 11 11 9 7 7 8 9 9 9 8 9 7 8 6 7 7 6 8 9 10 10 10 13 12 8 9 12 11 11 11 9 10 12 11 6 3 11 9 8 7 6 8 10 11 8 5 6 9 8 8 8 8 9 13 12 11 11 12 12 13 11 8 7 7 6 6
5 2 9 9 11 10 8 8 8 8 7 5 6 7 7 9 8 9 9 9 9 9 8 8 8 9 9 8 8 9 9 9 10 11 11 12 12 11 11 11 8 6 7 3 13 9 6 5 7 9 8 5 4 4 8 8 8 9 8 8 9 12 12 10 10 14 14 13 10 7 7 8 8 5
4 4 7 6 7 7 7 7 6 5 5 2 4 6 7 7 10 13 9 10 11 10 11 10 9 10 11 10 11 10 10 9 9 10 11 11 10 9 9 11 11 10 7 5 15 8 6 5 7 7 6 7 5 3 3 6 9 9 9 6 3 8 8 9 8 9 14 15 10 9 9 10 10 8
5 5 5 6 6 9 9 10 10 10 7 3 4 7 10 12 12 8 8 8 9 10 10 11 12 13 13 12 13 12 11 10 10 9 9 9 9 9 9 9 9 8 5 7 18 9 6 7 8 8 6 7 7 6 5 5 6 5 5 4 4 6 10 8 7 6 3 8 7 9 9 13 12 11
6 5 7 4 13 15 15 14 13 10 12 9 7 10 11 11 10 7 7 7 8 9 10 11 12 12 12 12 12 11 11 10 8 7 8 9 10 11 9 10 9 10 5 8 9 8 8 7 7 8 7 7 7 5 6 7 6 6 6 5 5 5 4 3 5 4 3 3 8 13 13 13 13 13
5 5 6 8 12 12 13 13 12 12 11 9 13 14 15 14 11 7 7 8 9 9 10 11 11 11 11 11 12 12 11 10 9 9 8 9 10 10 10 10 3 2 5 7 8 7 7 6 6 6 3 3 4 4 5 6 6 5 5 5 5 4 4 4 5 2 2 4 1 8 6 6 7 8
5 6 7 8 8 10 12 13 13 12 12 15 14 14 16 13 5 6 7 8 8 10 11 11 11 12 12 12 12 11 13 12 11 12 10 9 8 9 5 3 4 4 2 3 5 5 1 2 3 5 5 4 1 3 5 6 4 5 5 5 4 4 5 5 5 3 2 3 4 4 4 4 4 4
11 10 8 9 12 12 12 10 8 8 9 10 13 14 13 7 8 8 9 9 9 10 10 10 11 11 11 11 11 11 11 13 13 12 10 7 8 6 4 4 3 4 4 3 3 3 4 3 5 6 6 4 5 7 7 6 5 4 2 3 3 1 1 3 2 2 2 3 4 4 4 4 4 4
5 6 5 8 10 12 14 15 14 14 13 10 7 8 8 8 9 9 9 10 10 10 10 10 10 11 11 12 11 11 11 11 11 7 4 7 8 7 5 5 4 4 3 2 2 0 1 2 2 5 5 5 6 7 6 4 4 4 4 4 4 4 1 2 2 1 2 3 3 4 5 4 4 4
9 9 10 11 11 10 9 8 7 8 7 8 7 6 5 5 7 10 12 12 11 10 10 11 11 11 11 11 11 11 11 11 9 9 10 9 7 4 4 4 3 4 4 4 3 4 5 5 4 2 3 6 6 5 4 4 4 4 4 3 3 1 1 1 2 2 0 1 4 5 5 4 4 3
8 8 7 6 6 6 4 3 5 5 6 4 7 7 7 7 8 8 8 9 10 10 11 11 9 8 9 10 11 11 12 11 10 9 8 5 4 5 6 5 5 5 6 5 5 5 4 2 3 5 4 5 5 2 4 5 5 4 4 3 3 3 2 2 2 2 0 3 4 4 4 4 4 3
5 5 4 4 4 4 4 4 5 5 5 6 6 5 7 7 9 9 10 9 9 9 7 9 8 7 5 8 10 11 11 11 6 7 4 3 3 3 4 4 4 4 5 5 4 4 2 4 3 3 4 4 4 4 4 3 3 4 4 3 2 2 2 2 2 3 2 4 4 4 5 5 4 4
3 3 3 3 4 4 6 5 5 6 6 6 6 7 7 9 9 8 9 9 7 7 6 7 7 7 6 7 8 9 9 10 8 1 3 2 2 4 4 5 5 6 7 6 5 5 4 3 1 2 3 3 4 5 4 6 4 3 4 4 2 1 3 3 3 4 5 4 4 4 4 5 2 6
2 3 4 4 5 5 5 5 6 6 6 6 6 7 7 7 7 8 8 8 10 8 8 8 6 6 5 5 6 6 6 5 4 2 1 2 2 3 4 5 6 5 4 4 5 6 6 5 5 3 3 4 4 3 3 0 4 4 3 2 3 3 3 3 3 4 4 4 4 3 3 3 3 2
3 3 3 4 6 6 5 5 6 5 7 6 5 6 6 7 7 9 9 7 9 6 6 7 8 7 7 5 4 5 5 3 4 2 2 4 3 4 4 3 6 6 5 5 7 6 5 6 8 6 5 5 4 5 3 3 2 3 2 1 3 3 3 3 3 3 4 4 4 4 3 2 3 3
4 4 6 6 7 7 7 7 6 5 6 6 8 6 8 8 9 10 10 10 7 6 7 7 7 7 7 6 5 6 5 4 4 3 3 3 3 3 3 4 3 4 4 4 4 4 3 1 2 4 4 2 4 2 2 2 3 1 5 3 2 2 3 3 3 3 3 4 4 3 3 3 1 5
6 6 7 7 7 7 6 5 5 6 8 8 7 6 6 7 8 8 6 6 8 7 7 6 7 6 6 6 5 5 6 5 5 3 2 2 2 3 3 3 4 4 4 3 4 3 3 3 3 3 3 3 3 3 2 2 3 3 4 8 1 3 3 3 3 3 2 2 3 3 2 4 8 10
6 6 6 6 7 7 6 7 7 7 7 7 7 7 6 6 4 4 5 5 6 7 7 6 7 8 7 6 4 3 2 1 2 2 2 2 3 3 3 2 3 3 3 3 2 3 0 1 4 3 4 6 1 3 3 3 5 3 4 2 4 3 1 2 3 2 2 2 2 2 2 3 3 3
6 6 6 6 6 6 6 6 6 6 7 7 7 7 7 7 5 4 5 4 5 6 6 6 6 6 6 6 4 2 2 3 3 3 4 4 4 2 2 4 3 3 3 3 2 3 2 5 1 5 3 3 2 0 1 0 2 4 4 4 3 4 4 3 4 4 3 4 3 3 3 4 2 3
5 6 6 7 6 7 6 7 7 6 7 6 6 5 6 5 5 8 5 4 4 4 4 4 5 6 7 7 7 6 6 6 6 6 4 4 4 4 5 3 2 2 3 3 2 2 6 4 3 1 1 1 3 2 0 0 0 1 2 4 3 4 3 1 2 2 2 2 2 3 4 5 2 3
6 6 6 6 7 7 7 7 7 7 5 6 5 5 5 5 5 6 5 5 5 5 4 5 5 6 6 6 5 5 5 7 7 6 5 5 4 4 3 3 2 2 2 1 2 3 4 3 1 1 0 0 1 1 2 1 0 1 2 4 4 3 2 2 5 4 2 1 1 1 2 2 4 4
6 7 6 7 7 7 7 7 7 7 7 5 5 5 5 5 6 6 5 5 5 5 5 5 6 6 6 6 4 4 4 4 5 5 4 3 3 2 2 2 1 2 1 2 3 1 0 1 0 2 1 1 3 2 2 0 1 2 2 2 3 4 4 3 3 4 4 5 7 7 5 1 1 2
6 6 6 7 5 5 6 6 7 7 5 5 5 5 5 4 4 4 4 4 4 5 5 6 7 7 6 5 4 5 5 5 4 3 3 3 3 4 4 3 3 2 1 0 1 2 1 1 2 2 2 0 2 1 1 0 2 1 1 1 3 4 3 2 2 2 2 3 8 12 6 6 6 5
Wind_Direction
157 155 169 169 188 189 179 187 206 196 227 216 179 184 178 179 158 164 164 149 137 164 153 152 143 144 143 132 130 142 153 150 175 166 149 151 151 146 144 136 128 126 128 126 125 118 114 102 89 83 77 73 72 67 64 59 53 46 53 57 61 51 40 25 17 31 26 23 30 34 27 22 20 18
149 132 178 179 190 186 193 182 196 198 195 192 176 208 158 202 170 171 169 139 169 150 167 156 146 154 149 145 151 160 151 162 201 164 157 160 157 151 159 151 146 141 140 141 147 146 144 134 130 109 103 87 78 51 8 34 34 45 73 62 59 64 50 33 16 19 24 21 18 27 21 14 9 9
160 147 170 194 185 188 182 186 196 203 171 174 190 223 163 218 142 185 158 152 158 153 177 148 147 156 158 160 161 167 153 172 206 208 156 173 137 155 165 169 165 164 166 162 167 171 169 173 165 165 170 191 180 240 259 282 278 142 84 51 52 38 47 45 21 15 17 14 8 10 12 4 2 358
165 164 187 179 190 199 196 169 203 185 164 181 206 220 166 170 110 195 149 166 140 158 169 144 148 155 161 164 168 172 153 167 198 211 188 138 144 170 175 182 180 178 178 183 187 189 178 191 195 196 198 193 194 218 207 244 224 125 108 103 66 14 36 36 21 7 359 358 353 356 354 351 345 346
157 215 203 185 175 199 168 207 180 162 170 184 227 217 146 161 178 204 154 143 142 141 160 166 157 156 164 173 175 177 161 160 192 233 165 142 168 180 195 180 187 186 185 186 190 194 189 187 199 195 195 189 185 179 187 187 157 152 155 166 152 135 54 21 22 356 348 341 346 346 341 338 333 332
175 184 184 178 177 190 178 183 175 163 179 181 200 163 175 163 186 212 180 147 148 153 165 187 171 153 189 182 183 180 168 164 187 205 194 165 194 202 210 194 185 191 186 185 185 191 187 186 192 187 184 186 174 172 165 151 149 142 137 126 116 112 72 58 29 354 347 349 351 350 346 339 337 331
197 146 205 173 173 167 172 186 188 161 185 199 194 159 182 156 190 210 222 137 156 158 176 186 191 164 181 221 179 190 178 177 188 200 212 198 195 209 211 222 190 183 188 183 184 184 181 180 182 183 186 177 171 160 157 153 143 138 133 130 122 105 103 86 58 42 29 27 15 11 1 349 341 334
160 141 242 171 173 138 170 196 197 178 193 210 176 152 189 152 194 182 301 162 151 177 159 197 208 166 178 209 224 190 186 186 194 203 207 218 215 206 213 223 226 177 181 180 182 182 181 178 179 181 181 177 168 163 161 154 147 142 140 134 127 123 121 112 98 88 76 50 32 26 9 353 344 343
150 153 169 226 152 172 189 183 209 184 205 231 156 177 172 185 172 183 220 253 206 169 183 172 227 183 172 198 218 214 196 188 200 209 218 217 215 218 223 226 130 151 171 174 179 183 179 179 179 179 179 175 169 165 162 158 153 148 141 137 133 130 129 127 122 102 86 56 30 15 7 353 346 339
120 160 168 164 189 153 206 196 206 195 199 228 172 184 184 181 159 184 183 240 239 252 219 167 169 268 189 190 203 224 214 208 200 204 218 227 236 236 219 189 124 137 163 173 178 182 187 185 181 179 178 175 171 166 164 160 157 153 149 147 143 140 135 131 126 128 116 84 25 357 356 346 345 344
159 196 149 190 180 189 183 168 214 209 201 237 243 192 211 203 163 169 193 204 216 248 238 251 219 192 228 240 200 208 228 223 231 237 209 233 234 226 224 238 148 160 171 176 172 180 198 176 186 180 179 176 173 170 169 166 164 161 159 154 151 148 146 144 148 149 179 123 53 343 335 327 335 340
177 194 156 175 191 189 77 196 191 204 190 209 221 207 221 241 240 183 194 221 229 205 216 222 223 219 218 201 238 247 220 223 218 230 247 238 212 218 224 221 221 181 160 166 174 170 189 159 171 161 183 183 177 175 173 174 167 168 161 161 161 158 160 164 164 166 166 168 231 298 316 320 337 337
215 191 191 99 64 64 61 59 42 35 33 251 216 215 221 237 229 223 224 218 219 231 225 218 226 231 217 224 209 214 245 255 245 228 220 250 270 275 242 208 207 228 206 174 182 184 186 185 185 188 191 191 184 183 186 173 176 170 166 169 168 168 170 168 174 176 188 225 258 292 302 319 328 334
213 205 142 80 70 60 59 57 51 40 46 58 38 7 335 253 232 223 243 241 230 229 227 226 228 222 233 233 222 228 222 245 274 267 262 266 261 239 256 275 235 193 235 193 197 195 183 192 190 197 205 180 184 187 197 189 182 175 175 172 171 174 169 173 181 193 206 225 270 284 297 317 325 329
194 212 179 116 112 121 113 122 102 78 33 32 51 47 60 66 15 321 260 236 250 255 246 240 232 234 243 240 244 237 231 224 225 240 247 257 265 277 271 261 258 251 235 233 246 255 185 189 204 206 214 181 183 200 201 186 168 169 177 174 175 172 173 178 188 212 217 234 258 285 302 314 319 322
189 194 183 159 158 175 65 90 151 145 132 113 35 24 7 356 6 109 337 320 300 280 268 265 262 264 254 256 251 250 251 257 239 230 234 239 243 253 262 255 257 261 199 228 242 241 226 186 214 218 226 174 183 200 185 162 160 167 172 175 172 171 170 180 197 209 231 237 267 282 296 301 308 312
265 180 165 160 214 93 76 281 279 252 160 128 96 12 325 301 279 286 263 231 261 319 316 292 272 262 268 270 264 270 281 283 273 269 259 252 255 245 246 253 260 262 156 194 218 234 235 217 199 233 232 218 162 124 144 152 157 164 171 173 173 170 177 182 196 212 231 262 275 289 294 296 298 301
232 91 247 206 195 191 170 18 344 278 266 183 180 202 229 250 231 229 244 244 250 246 269 286 285 288 287 279 290 302 284 270 266 265 259 275 271 262 260 270 268 261 162 202 212 237 237 243 202 222 226 233 133 157 144 153 160 165 171 173 174 180 180 191 208 226 237 250 268 278 289 292 292 291
31 331 337 319 308 57 54 27 10 21 6 340 309 288 264 251 250 243 230 226 234 227 230 253 266 276 279 284 291 290 312 285 269 267 271 268 273 275 278 260 241 186 187 213 217 248 247 235 217 223 229 230 207 160 157 161 166 171 172 174 178 178 187 188 207 222 232 245 252 263 276 283 283 286
156 32 6 315 10 57 63 22 27 25 352 321 297 288 281 277 274 268 264 266 228 228 238 247 268 285 336 35 357 334 298 261 240 278 290 282 268 265 256 252 243 236 224 209 227 242 248 241 263 229 232 227 247 145 157 166 173 174 171 175 177 184 182 195 206 216 226 231 232 245 261 268 277 279
171 79 39 12 19 95 61 29 32 16 355 312 300 290 289 288 285 291 295 55 34 15 358 340 323 312 302 297 294 289 292 279 290 250 251 250 255 265 281 283 280 262 228 224 212 232 250 246 247 243 222 252 253 210 156 170 179 170 172 176 182 184 191 196 200 210 221 223 227 232 240 251 258 274
65 77 52 27 49 72 61 44 40 19 351 327 310 304 297 290 281 275 277 276 254 170 232 256 265 273 283 283 284 280 274 275 278 243 247 247 227 221 234 260 249 255 260 243 194 211 235 244 242 250 241 223 230 252 163 152 159 167 174 186 189 193 195 193 201 215 217 221 226 230 240 252 268 271
346 104 60 53 57 66 62 46 42 32 17 346 334 330 315 298 287 293 316 304 292 287 279 273 266 255 243 245 247 252 241 239 245 250 254 259 253 247 235 236 256 271 283 265 172 214 223 229 230 238 249 249 252 223 141 144 161 179 186 195 202 202 194 192 206 215 220 224 225 222 238 251 253 282
313 99 106 74 75 76 60 47 34 38 38 360 335 325 310 301 301 4 339 320 318 303 282 276 279 277 270 251 232 233 237 220 219 231 239 245 251 253 256 250 244 238 237 179 174 212 219 226 238 232 235 226 225 194 147 148 167 184 196 196 201 190 187 200 218 224 225 226 216 209 220 237 252 292
319 313 91 95 80 61 44 30 22 27 15 2 316 303 288 300 337 335 319 317 318 300 290 274 259 261 258 258 257 245 240 231 214 219 226 235 238 242 252 260 255 255 238 208 187 200 211 207 227 234 207 214 220 100 183 184 182 184 194 196 206 148 182 202 221 222 216 223 187 193 216 235 233 251
344 341 358 71 27 17 17 10 357 344 341 308 281 281 281 295 308 314 297 292 287 281 277 274 269 262 256 253 251 244 239 237 227 209 216 221 237 239 241 244 251 260 250 161 176 194 193 221 219 213 204 206 224 190 164 217 208 202 184 175 208 169 180 201 214 257 227 175 172 190 215 220 234 227
327 334 314 25 18 357 350 346 336 323 310 307 277 273 277 282 291 289 277 281 284 278 274 274 270 269 267 265 264 260 260 254 244 226 205 203 210 233 243 247 255 262 241 167 192 198 209 225 199 204 198 199 212 199 178 217 199 172 178 194 198 205 210 217 248 233 303 166 165 184 206 223 221 223
298 309 2 358 348 341 326 313 307 306 299 278 279 283 283 281 285 283 280 275 274 275 274 271 269 266 263 263 262 260 256 254 249 245 213 206 216 220 227 222 195 127 127 170 185 207 223 220 191 212 192 169 163 194 240 206 224 184 193 188 193 178 184 227 237 260 241 275 189 168 205 216 203 216
354 1 334 343 333 308 294 289 289 283 272 267 266 263 263 265 264 258 261 266 265 267 264 261 261 261 260 259 260 263 264 263 261 258 250 216 218 236 214 111 81 75 69 146 181 201 173 80 131 90 69 54 352 267 239 242 202 202 193 196 183 191 210 221 245 225 279 307 294 273 283 299 291 287
309 313 308 288 278 278 274 279 276 271 269 248 247 253 254 257 262 266 264 262 260 262 267 266 269 274 278 276 275 269 263 262 261 262 263 240 222 191 157 149 127 81 58 46 68 75 97 115 132 135 133 175 208 228 225 224 229 232 177 180 216 260 201 253 260 265 270 266 268 274 276 288 288 292
276 285 277 283 278 273 272 268 272 276 282 287 252 228 232 239 249 257 255 251 263 277 282 288 292 297 298 294 288 280 277 270 270 269 210 221 222 185 188 176 167 147 124 102 76 237 162 105 78 140 144 178 210 223 226 215 220 210 199 173 194 205 218 173 210 265 285 272 270 266 264 261 271 216
324 308 287 269 256 252 248 251 244 245 245 250 284 313 305 269 240 239 252 276 282 271 267 271 278 285 292 296 298 294 288 282 278 263 251 244 235 192 172 171 168 156 134 129 119 60 57 72 43 322 223 231 211 196 202 211 215 219 217 205 172 150 73 337 331 303 79 263 258 259 261 264 265 272
305 294 294 312 307 305 307 309 311 322 321 316 313 309 311 315 315 308 307 305 309 309 304 305 312 312 310 306 307 304 294 286 278 278 260 222 217 196 199 206 182 173 165 142 92 48 11 34 38 354 355 328 335 307 200 195 207 209 218 192 173 184 168 202 252 260 346 226 252 263 262 250 242 262
297 293 300 301 318 319 318 322 324 328 333 328 319 315 316 310 309 322 320 310 302 309 311 308 306 303 304 304 298 295 295 301 316 33 2 199 202 193 200 187 182 150 137 126 126 126 114 67 52 345 44 342 346 313 292 255 220 204 170 152 186 236 236 232 207 233 243 248 266 267 259 256 245 185
245 282 302 317 319 324 332 335 329 327 319 320 321 314 316 314 315 314 312 315 317 317 316 312 309 312 315 302 293 289 294 299 300 345 48 60 85 134 142 138 129 126 125 121 118 126 127 128 83 210 189 202 226 230 284 316 297 228 198 168 111 234 244 211 222 216 222 235 242 256 270 277 264 111
301 343 342 336 333 332 326 325 325 324 326 323 319 318 316 317 320 318 304 320 320 316 315 315 320 317 315 312 306 300 288 279 263 225 153 128 116 107 111 120 120 120 129 143 152 151 141 158 187 182 190 206 220 230 202 119 63 337 308 161 159 200 231 236 207 236 238 247 240 244 262 277 288 221
329 350 338 333 329 329 325 327 329 327 319 316 316 318 321 316 312 307 310 322 317 328 334 327 316 316 314 305 299 296 286 259 247 218 179 173 160 150 146 147 143 148 156 182 165 152 171 198 192 204 208 222 218 242 163 158 66 357 322 165 181 186 204 218 225 234 237 242 240 238 256 284 281 64
344 344 344 331 333 329 332 327 328 326 320 318 317 316 315 312 307 310 322 323 333 337 335 331 328 326 324 322 303 287 276 259 247 216 194 177 159 156 151 140 125 121 103 67 106 150 165 261 215 205 244 298 281 282 123 182 180 170 12 15 180 177 189 212 223 231 234 221 245 261 273 268 274 105
357 346 337 337 337 336 337 338 335 326 326 331 327 322 321 321 320 321 339 354 347 338 327 319 312 317 320 311 300 287 278 262 238 210 174 165 155 129 116 120 124 123 112 116 90 60 17 344 326 348 342 333 44 35 345 179 163 125 28 15 350 187 198 207 228 235 223 253 253 270 261 93 86 108
357 347 346 351 349 346 338 333 331 336 335 330 324 325 325 315 328 4 351 344 346 336 326 327 338 332 312 302 290 272 267 251 224 160 131 109 95 101 108 110 119 130 132 104 104 100 133 243 35 34 17 91 118 19 15 59 107 123 129 201 345 26 61 352 304 255 231 223 293 286 272 158 169 176
352 349 357 349 342 339 338 338 340 339 334 332 327 326 323 328 1 12 345 14 353 340 347 5 0 352 354 350 353 356 56 43 38 40 44 48 55 60 106 136 119 134 131 141 150 176 158 70 140 280 321 65 36 96 230 221 165 159 142 119 105 82 50 26 332 339 340 337 310 287 277 280 279 168
353 355 355 359 352 347 346 342 342 343 340 340 342 349 347 358 6 349 342 34 6 358 9 21 20 15 14 13 15 19 32 37 39 39 37 45 51 38 23 29 111 163 150 134 155 137 98 92 112 246 308 67 59 15 242 230 225 112 89 121 137 135 148 265 19 26 305 320 326 313 321 316 317 276
5 2 358 2 357 354 354 348 347 350 354 359 1 360 354 360 5 5 13 13 16 19 35 43 34 30 22 22 22 26 34 36 35 29 33 36 39 38 31 38 43 43 22 82 86 46 55 43 36 16 38 87 94 206 278 258 249 138 152 155 157 165 163 175 261 261 258 185 168 282 348 353 347 339
8 0 6 5 5 5 1 353 359 3 8 7 10 9 13 16 25 27 28 32 31 39 43 43 42 38 35 27 19 33 35 40 39 28 19 20 24 28 36 35 26 42 34 79 82 91 111 102 252 252 227 195 197 212 229 160 207 233 195 191 146 160 175 179 191 209 231 238 237 224 223 143 91 131
9 5 10 10 11 13 7 358 2 12 18 14 16 20 17 27 40 49 44 46 46 45 44 41 41 41 37 24 21 32 24 18 23 16 12 14 25 30 30 24 21 16 34 97 177 180 165 176 202 191 248 242 37 8 319 351 1 259 202 164 159 182 188 180 190 198 213 207 203 208 191 156 184 201